C/2016 X1 ( Lemmon )

Japanese version
Home page
Updated on August 28, 2018

---------------------------------------------------------------------

* Profile

Discovery Date December 8, 2016
Magnitude 20.1 mag
Discoverer G. J. Leonard (Mount Lemmon)

* Pictures

* Orbital Elements

Epoch 2019 Apr. 27.0 TT = JDT 2458600.5
T 2019 Apr. 29.82593 TT                                 MPCW
q   7.5637253            (2000.0)            P               Q
z  +0.0005623      Peri.  224.56643     -0.44350107     -0.78470496
 +/-0.0000047      Node   256.42672     +0.89502514     -0.36225598
e   0.9957468      Incl.   26.45580     +0.04729481     -0.50299973
From 80 observations 2016 Nov. 26-2018 Mar. 12, mean residual 0".4.

* Magnitudes Graph

        m1 = -3.8 + 5 log d + 20.0 log r

---------------------------------------------------------------------

The orbital elements are published on M.P.E.C. 2018-F152.
The magnitudes graphs are made with Comet for Windows.

---------------------------------------------------------------------

Copyright(C) Seiichi Yoshida (comet@aerith.net). All rights reserved.